EN

Hourly Weather Działoszyce

Today, 21 October, Wednesday

Time Temperature Precipitation Wind Pressure Humidity
00:00 +7°C° 0 mm 2 mps 744 mmHg 79%
01:00 +7°C° 0 mm 2 mps 744 mmHg 79%
02:00 +6°C° 0 mm 2 mps 743 mmHg 78%
03:00 +6°C° 0 mm 2 mps 743 mmHg 78%
04:00 +6°C° 0 mm 2 mps 743 mmHg 77%
05:00 +6°C° 0 mm 2 mps 743 mmHg 76%
06:00 +6°C° 0 mm 2 mps 743 mmHg 75%
07:00 +7°C° 0 mm 2 mps 742 mmHg 74%
08:00 +8°C° 0 mm 2 mps 742 mmHg 70%
09:00 +9°C° 0 mm 2 mps 742 mmHg 65%
10:00 +10°C° 0 mm 2 mps 742 mmHg 61%
11:00 +13°C° 0 mm 2 mps 742 mmHg 59%
12:00 +14°C° 0 mm 2 mps 742 mmHg 56%
13:00 +15°C° 0 mm 2 mps 742 mmHg 53%
14:00 +14°C° 0 mm 2 mps 742 mmHg 57%
15:00 +14°C° 0 mm 1 mps 742 mmHg 62%
16:00 +13°C° 0 mm 1 mps 741 mmHg 66%
17:00 +12°C° 0 mm 2 mps 741 mmHg 68%
18:00 +12°C° 0 mm 2 mps 742 mmHg 71%
19:00 +10°C° 0 mm 3 mps 742 mmHg 74%
20:00 +10°C° 0 mm 2 mps 742 mmHg 76%
21:00 +9°C° 0 mm 2 mps 742 mmHg 79%
22:00 +9°C° 0 mm 2 mps 742 mmHg 82%
23:00 +9°C° 0 mm 2 mps 742 mmHg 82%

Tomorrow, 22 October, Thursday

Time Temperature Precipitation Wind Pressure Humidity
00:00 +8°C° 0 mm 2 mps 742 mmHg 83%
01:00 +8°C° 0 mm 2 mps 742 mmHg 83%
02:00 +8°C° 0 mm 3 mps 742 mmHg 84%
03:00 +8°C° 0 mm 4 mps 742 mmHg 84%
04:00 +8°C° 0 mm 5 mps 742 mmHg 85%
05:00 +8°C° 0 mm 4 mps 742 mmHg 84%
06:00 +9°C° 0 mm 3 mps 743 mmHg 84%
07:00 +9°C° 0 mm 2 mps 743 mmHg 84%
08:00 +10°C° 0 mm 3 mps 743 mmHg 78%
09:00 +12°C° 0 mm 3 mps 743 mmHg 72%
10:00 +14°C° 0 mm 3 mps 743 mmHg 66%
11:00 +16°C° 0 mm 3 mps 743 mmHg 63%
12:00 +17°C° 0 mm 3 mps 743 mmHg 61%
13:00 +18°C° 0 mm 3 mps 743 mmHg 58%
14:00 +17°C° 0 mm 3 mps 743 mmHg 62%
15:00 +17°C° 0 mm 3 mps 742 mmHg 67%
16:00 +16°C° 0 mm 2 mps 742 mmHg 71%
17:00 +15°C° 0 mm 2 mps 742 mmHg 73%
18:00 +14°C° 0 mm 2 mps 743 mmHg 75%
19:00 +13°C° 0 mm 2 mps 743 mmHg 77%
20:00 +13°C° 0 mm 2 mps 743 mmHg 78%
21:00 +13°C° 0 mm 2 mps 743 mmHg 79%
22:00 +13°C° 0 mm 2 mps 743 mmHg 80%
23:00 +13°C° 0 mm 2 mps 742 mmHg 80%

Day after tomorrow, 23 October, Friday

Time Temperature Precipitation Wind Pressure Humidity
00:00 +13°C° 0 mm 2 mps 742 mmHg 80%
01:00 +13°C° 0 mm 2 mps 742 mmHg 81%
02:00 +13°C° 0 mm 2 mps 742 mmHg 81%
03:00 +12°C° 0 mm 2 mps 742 mmHg 82%
04:00 +12°C° 0 mm 1 mps 741 mmHg 83%
05:00 +12°C° 0 mm 2 mps 741 mmHg 83%
06:00 +10°C° 0 mm 2 mps 741 mmHg 83%
07:00 +10°C° 0 mm 2 mps 741 mmHg 83%
08:00 +12°C° 0 mm 3 mps 741 mmHg 78%
09:00 +13°C° 0 mm 3 mps 741 mmHg 73%
10:00 +14°C° 0 mm 4 mps 741 mmHg 69%
11:00 +15°C° 0 mm 4 mps 740 mmHg 67%
12:00 +17°C° 0 mm 4 mps 740 mmHg 64%
13:00 +17°C° 0 mm 4 mps 740 mmHg 62%
14:00 +17°C° 0 mm 3 mps 740 mmHg 67%
15:00 +16°C° 0 mm 3 mps 739 mmHg 72%
16:00 +15°C° 0 mm 2 mps 739 mmHg 77%
17:00 +15°C° 0 mm 2 mps 739 mmHg 80%
18:00 +14°C° 0 mm 2 mps 739 mmHg 83%
19:00 +13°C° 0 mm 2 mps 739 mmHg 86%
20:00 +13°C° 0 mm 1 mps 739 mmHg 86%
21:00 +13°C° 0 mm 1 mps 739 mmHg 87%
22:00 +13°C° 0 mm 1 mps 739 mmHg 87%
23:00 +13°C° 0 mm 1 mps 739 mmHg 87%

24 October, Saturday

Time Temperature Precipitation Wind Pressure Humidity
00:00 +12°C° 0 mm 1 mps 739 mmHg 88%
01:00 +12°C° 0 mm 1 mps 738 mmHg 88%
02:00 +12°C° 0.1 mm 2 mps 738 mmHg 88%
03:00 +12°C° 0.1 mm 2 mps 738 mmHg 88%
04:00 +11°C° 0.1 mm 3 mps 738 mmHg 88%
05:00 +12°C° 1.1 mm 4 mps 737 mmHg 90%
06:00 +12°C° 1.1 mm 4 mps 737 mmHg 91%
07:00 +12°C° 1.1 mm 5 mps 737 mmHg 93%
08:00 +11°C° 0.8 mm 6 mps 738 mmHg 90%
09:00 +11°C° 0.8 mm 6 mps 738 mmHg 86%
10:00 +13°C° 0.8 mm 6 mps 739 mmHg 83%
11:00 +12°C° 0.1 mm 7 mps 739 mmHg 76%
12:00 +13°C° 0.1 mm 8 mps 739 mmHg 69%
13:00 +13°C° 0.1 mm 9 mps 740 mmHg 63%
14:00 +12°C° 0 mm 8 mps 740 mmHg 65%
15:00 +11°C° 0 mm 8 mps 740 mmHg 67%
16:00 +9°C° 0 mm 7 mps 741 mmHg 69%
17:00 +9°C° 0 mm 6 mps 741 mmHg 70%
18:00 +8°C° 0 mm 6 mps 742 mmHg 72%
19:00 +7°C° 0 mm 5 mps 743 mmHg 73%
20:00 +7°C° 0 mm 5 mps 743 mmHg 75%
21:00 +6°C° 0 mm 5 mps 743 mmHg 76%
22:00 +6°C° 0 mm 4 mps 744 mmHg 78%
23:00 +6°C° 0 mm 4 mps 744 mmHg 80%

25 October, Sunday

Time Temperature Precipitation Wind Pressure Humidity
00:00 +5°C° 0 mm 4 mps 744 mmHg 83%
01:00 +5°C° 0 mm 3 mps 744 mmHg 85%
02:00 +4°C° 0 mm 3 mps 744 mmHg 86%
03:00 +4°C° 0 mm 3 mps 744 mmHg 87%
04:00 +4°C° 0 mm 3 mps 744 mmHg 88%
05:00 +4°C° 0 mm 3 mps 744 mmHg 87%
06:00 +5°C° 0 mm 2 mps 744 mmHg 87%
07:00 +5°C° 0 mm 2 mps 744 mmHg 86%
08:00 +7°C° 0 mm 2 mps 744 mmHg 78%
09:00 +8°C° 0 mm 2 mps 744 mmHg 70%
10:00 +10°C° 0 mm 2 mps 744 mmHg 62%
11:00 +12°C° 0 mm 2 mps 744 mmHg 57%
12:00 +13°C° 0 mm 1 mps 744 mmHg 53%
13:00 +13°C° 0 mm 1 mps 743 mmHg 48%
14:00 +13°C° 0 mm 1 mps 743 mmHg 52%
15:00 +12°C° 0 mm 1 mps 743 mmHg 56%
16:00 +11°C° 0 mm 1 mps 743 mmHg 60%
17:00 +9°C° 0 mm 2 mps 743 mmHg 63%
18:00 +8°C° 0 mm 2 mps 743 mmHg 65%
19:00 +7°C° 0 mm 2 mps 743 mmHg 68%
20:00 +7°C° 0 mm 2 mps 743 mmHg 69%
21:00 +7°C° 0 mm 2 mps 743 mmHg 71%
22:00 +6°C° 0 mm 2 mps 743 mmHg 72%
23:00 +6°C° 0 mm 2 mps 743 mmHg 74%

26 October, Monday

Time Temperature Precipitation Wind Pressure Humidity
00:00 +6°C° 0 mm 2 mps 743 mmHg 76%
01:00 +6°C° 0 mm 2 mps 743 mmHg 78%
02:00 +5°C° 0 mm 2 mps 743 mmHg 81%
03:00 +5°C° 0 mm 2 mps 742 mmHg 83%
04:00 +5°C° 0 mm 2 mps 742 mmHg 85%
05:00 +5°C° 0 mm 2 mps 742 mmHg 86%
06:00 +5°C° 0 mm 2 mps 742 mmHg 86%
07:00 +5°C° 0 mm 2 mps 742 mmHg 86%
08:00 +5°C° 0 mm 3 mps 742 mmHg 80%
09:00 +8°C° 0 mm 3 mps 742 mmHg 74%
10:00 +10°C° 0 mm 4 mps 742 mmHg 67%
11:00 +11°C° 0 mm 4 mps 741 mmHg 64%
12:00 +12°C° 0 mm 4 mps 741 mmHg 60%
13:00 +13°C° 0 mm 5 mps 741 mmHg 57%
14:00 +12°C° 0 mm 4 mps 741 mmHg 60%
15:00 +12°C° 0 mm 4 mps 741 mmHg 63%
16:00 +11°C° 0 mm 3 mps 741 mmHg 66%
17:00 +10°C° 0 mm 3 mps 741 mmHg 70%
18:00 +9°C° 0 mm 3 mps 741 mmHg 73%
19:00 +8°C° 0 mm 3 mps 741 mmHg 76%
20:00 +7°C° 0 mm 2 mps 742 mmHg 78%
21:00 +7°C° 0 mm 2 mps 742 mmHg 79%
22:00 +8°C° 0 mm 1 mps 742 mmHg 81%
23:00 +8°C° 0 mm 1 mps 742 mmHg 82%

27 October, Tuesday

Time Temperature Precipitation Wind Pressure Humidity
00:00 +8°C° 0 mm 1 mps 743 mmHg 83%
01:00 +7°C° 0 mm 1 mps 743 mmHg 84%
02:00 +7°C° 0 mm 1 mps 743 mmHg 84%
03:00 +6°C° 0 mm 0 mps 743 mmHg 85%
04:00 +6°C° 0 mm 0 mps 744 mmHg 86%
05:00 +6°C° 0 mm 0 mps 744 mmHg 86%
06:00 +7°C° 0 mm 0 mps 744 mmHg 86%
07:00 +8°C° 0 mm 1 mps 745 mmHg 86%
08:00 +9°C° 0 mm 1 mps 745 mmHg 79%
09:00 +11°C° 0 mm 1 mps 745 mmHg 73%
10:00 +13°C° 0 mm 1 mps 745 mmHg 67%
11:00 +14°C° 0 mm 1 mps 745 mmHg 65%
12:00 +15°C° 0 mm 1 mps 745 mmHg 62%
13:00 +16°C° 0 mm 1 mps 746 mmHg 60%
14:00 +15°C° 0 mm 1 mps 746 mmHg 64%
15:00 +14°C° 0 mm 1 mps 746 mmHg 69%
16:00 +13°C° 0 mm 1 mps 746 mmHg 73%
17:00 +12°C° 0 mm 1 mps 746 mmHg 76%
18:00 +11°C° 0 mm 1 mps 746 mmHg 80%
19:00 +10°C° 0 mm 1 mps 746 mmHg 83%
20:00 +10°C° 0 mm 1 mps 746 mmHg 85%
21:00 +10°C° 0 mm 1 mps 747 mmHg 86%
22:00 +9°C° 0 mm 1 mps 747 mmHg 87%
23:00 +9°C° 0 mm 1 mps 747 mmHg 88%
Show more